Regional Weather Roundup
Issued by NWS

Home | Current Version | Previous Version | Graphics & Text | Print | Product List | Glossary On
Versions: 1 2 3 4 5 6 7 8 9 10 11 12 13 14 15 16 17 18 19 20 21 22 23 24 25 26 27 28 29 30 31 32 33 34 35 36 37 38 39 40 41 42 43 44 45 46 47 48 49 50
000
ASUS43 KLMK 022010
RWRKY
KENTUCKY REGIONAL WEATHER ROUNDUP
NATIONAL WEATHER SERVICE LOUISVILLE KY
400 PM EDT MON MAY 02 2016

NOTE "FAIR" INDICATES FEW OR NO CLOUDS BELOW 12,000 FEET
WITH NO SIGNIFICANT WEATHER AND/OR OBSTRUCTIONS TO VISIBILITY.

KYZ001>023-026-027-061>063-070>075-022100-
WESTERN AND SOUTH CENTRAL KENTUCKY

CITY           SKY/WX    TMP DP  RH WIND       PRES   REMARKS
PADUCAH        CLOUDY    68  52  56 NW7       29.97S
HENDERSON      CLOUDY    64  50  59 NW10      29.96F
OWENSBORO      CLOUDY    66  54  65 NW15      29.95F
HOPKINSVILLE   CLOUDY    60  56  87 CALM      29.97R
BOWLING GREEN  CLOUDY    60  57  89 NW5       29.96S
GLASGOW        LGT RAIN  59  59 100 NW6       29.95R
$$

KYZ024-025-028>034-038-045-046-053-022100-
NORTH CENTRAL KENTUCKY

CITY           SKY/WX    TMP DP  RH WIND       PRES   REMARKS
LOUISVILLE/SDF CLOUDY    64  51  62 W12       29.94F
LOUISVILLE/LOU CLOUDY    63  50  62 W10       29.95F
FORT KNOX      CLOUDY    62  53  73 W10       29.94S
$$

KYZ035>037-039>044-047>052-055>060-089>105-022100-
NORTHEAST KENTUCKY

CITY           SKY/WX    TMP DP  RH WIND       PRES   REMARKS
LEXINGTON      LGT RAIN  61  57  87 CALM      29.91F
COVINGTON      CLOUDY    63  51  65 W7        29.94F
FRANKFORT      CLOUDY    65  55  70 W5        29.91F
$$

KYZ054-064>069-076>088-106>120-022100-
SOUTHEAST KENTUCKY

CITY           SKY/WX    TMP DP  RH WIND       PRES   REMARKS
JACKSON        TSTM      60  59  96 CALM      30.00R VSB 3/4
LONDON         RAIN      60  57  89 CALM      29.98S FOG
SOMERSET       CLOUDY    61  61 100 CALM      29.97S
MIDDLESBORO    CLOUDY    67  65  90 CALM      29.96F
MONTICELLO     CLOUDY    63  59  87 N8        29.97F
$$




USA.gov is the U.S. government's official web portal to all federal, state and local government web resources and services.